FW6531 Weather Reports


Display with metric or nautical units.
time (UTC)temp
F
wind
direction
speed
MPH
gust
MPH
rain 1hr
in
rain 24hr
in
rain mn
in
humidity
%
barometer
mb
20260902182502 64 128 2.0 6.0 0.00 0.00 0.00 82 1022.1
20260902182003 64 59 2.0 7.0 0.00 0.00 0.00 82 1022.1
20260902181502 65 165 3.0 7.0 0.00 0.00 0.00 81 1022.1
20260902181001 65 57 2.0 6.0 0.00 0.00 0.00 82 1022.2
20260902180501 65 153 2.0 6.0 0.00 0.00 0.00 81 1022.2
20260902180007 65 172 2.0 6.0 0.00 0.00 0.00 81 1022.1
20260902175504 65 84 1.0 6.0 0.00 0.00 0.00 80 1022.1
20260902175102 65 185 1.0 6.0 0.00 0.00 0.00 80 1022.0
20260902174601 66 151 2.0 6.0 0.00 0.00 0.00 79 1022.0
20260902174059 66 128 2.0 7.0 0.00 0.00 0.00 79 1022.1
20260902173559 66 126 2.0 9.0 0.00 0.00 0.00 78 1022.0
20260902173059 66 67 2.0 9.0 0.00 0.00 0.00 78 1022.1
20260902172558 66 295 1.0 9.0 0.00 0.00 0.00 78 1022.1
20260902172058 66 189 4.0 9.0 0.00 0.00 0.00 78 1022.2
20260902171618 66 58 1.0 6.0 0.00 0.00 0.00 78 1022.1
20260902171100 66 140 2.0 6.0 0.00 0.00 0.00 78 1021.9
20260902170557 66 136 1.0 8.0 0.00 0.00 0.00 78 1022.0
20260902170057 66 90 3.0 8.0 0.00 0.00 0.00 78 1021.9
20260902165557 66 98 3.0 8.0 0.00 0.00 0.00 78 1021.9
20260902165059 66 90 1.0 9.0 0.00 0.00 0.00 78 1022.0
20260902164601 66 92 3.0 9.0 0.00 0.00 0.00 78 1022.1
20260902164058 66 265 2.0 9.0 0.00 0.00 0.00 78 1022.2
20260902163559 66 194 1.0 6.0 0.00 0.00 0.00 78 1022.2
20260902163056 66 123 2.0 9.0 0.00 0.00 0.00 78 1022.4
20260902162600 66 86 2.0 8.0 0.00 0.00 0.00 77 1022.4
20260902162059 67 155 4.0 8.0 0.00 0.00 0.00 75 1022.4
20260902161556 67 185 3.0 9.0 0.00 0.00 0.00 74 1022.4
20260902161056 68 72 4.0 8.0 0.00 0.00 0.00 75 1022.4
20260902160555 68 98 1.0 7.0 0.00 0.00 0.00 76 1022.6
20260902160057 68 51 2.0 6.0 0.00 0.00 0.00 75 1022.6
20260902155555 68 329 2.0 8.0 0.00 0.00 0.00 75 1022.6
20260902155055 68 190 3.0 8.0 0.00 0.00 0.00 75 1022.7
20260902154555 68 217 3.0 8.0 0.00 0.00 0.00 74 1022.8
20260902154054 68 225 2.0 8.0 0.00 0.00 0.00 74 1022.7
20260902153554 68 355 1.0 7.0 0.00 0.00 0.00 73 1022.7
20260902153055 69 187 2.0 7.0 0.00 0.00 0.00 73 1022.5
20260902152552 69 234 2.0 7.0 0.00 0.00 0.00 74 1022.5
20260902152055 68 84 1.0 8.0 0.00 0.00 0.00 74 1022.4
20260902151552 68 288 2.0 6.0 0.00 0.00 0.00 74 1022.4
20260902151051 68 103 2.0 6.0 0.00 0.00 0.00 73 1022.4
20260902150551 68 156 1.0 7.0 0.00 0.00 0.00 74 1022.4
20260902150051 68 82 2.0 5.0 0.00 0.00 0.00 73 1022.4
20260902145551 68 205 1.0 6.0 0.00 0.00 0.00 75 1022.4
20260902145050 68 110 3.0 6.0 0.00 0.00 0.00 74 1022.5
20260902144557 68 59 1.0 4.0 0.00 0.00 0.00 74 1022.4
20260902144050 68 79 1.0 6.0 0.00 0.00 0.00 73 1022.5
20260902143548 68 188 2.0 8.0 0.00 0.00 0.00 72 1022.6
20260902143048 68 346 2.0 8.0 0.00 0.00 0.00 73 1022.5
20260902142548 69 47 3.0 8.0 0.00 0.00 0.00 71 1022.3
20260902142048 69 105 3.0 7.0 0.00 0.00 0.00 72 1022.4
20260902141552 69 26 1.0 6.0 0.00 0.00 0.00 71 1022.3
20260902141045 69 83 2.0 9.0 0.00 0.00 0.00 72 1022.1
20260902140544 69 53 1.0 6.0 0.00 0.00 0.00 73 1022.2
20260902140043 68 105 2.0 7.0 0.00 0.00 0.00 73 1022.0
20260902135543 68 95 1.0 8.0 0.00 0.00 0.00 75 1022.0
20260902135042 68 111 3.0 8.0 0.00 0.00 0.00 74 1022.1
20260902134545 68 88 2.0 7.0 0.00 0.00 0.00 76 1022.2
20260902134040 67 91 2.0 6.0 0.00 0.00 0.00 77 1022.2
20260902133539 67 142 1.0 6.0 0.00 0.00 0.00 75 1022.4
20260902133041 67 98 1.0 5.0 0.00 0.00 0.00 76 1022.2
20260902132537 67 5 2.0 5.0 0.00 0.00 0.00 77 1022.0
20260902132037 67 143 1.0 3.0 0.00 0.00 0.00 78 1022.2
20260902131535 67 112 0.0 3.0 0.00 0.00 0.00 79 1022.0
20260902131037 66 132 0.0 3.0 0.00 0.00 0.00 79 1022.0
20260902130535 66 161 0.0 5.0 0.00 0.00 0.00 79 1022.1
20260902130036 66 143 0.0 6.0 0.00 0.00 0.00 83 1022.0
20260902125531 65 188 1.0 6.0 0.00 0.00 0.00 82 1021.9
20260902125030 65 69 1.0 6.0 0.00 0.00 0.00 83 1022.0
20260902124530 65 19 3.0 9.0 0.00 0.00 0.00 84 1021.9
20260902124029 64 14 4.0 9.0 0.00 0.00 0.00 85 1021.8
20260902123528 64 360 3.0 6.0 0.00 0.00 0.00 88 1021.8
20260902123026 64 33 2.0 6.0 0.00 0.00 0.00 90 1022.0
20260902122526 64 17 3.0 7.0 0.00 0.00 0.00 91 1022.0
20260902122024 63 46 2.0 8.0 0.00 0.00 0.00 92 1022.1
20260902121523 63 28 3.0 9.0 0.00 0.00 0.00 94 1022.0
20260902121022 63 24 1.0 9.0 0.00 0.00 0.00 95 1022.0
20260902120523 62 5 1.0 4.0 0.00 0.00 0.00 95 1022.1
20260902120021 62 338 2.0 6.0 0.00 0.00 0.00 95 1022.3
20260902115525 62 33 1.0 6.0 0.00 0.00 0.00 96 1022.1
20260902115019 62 342 1.0 6.0 0.00 0.00 0.00 96 1022.1
20260902114524 62 28 3.0 6.0 0.00 0.00 0.00 96 1021.9
20260902114019 62 21 1.0 4.0 0.00 0.00 0.00 96 1021.8
20260902113517 62 22 1.0 4.0 0.00 0.00 0.00 96 1021.8
20260902113018 61 360 2.0 4.0 0.00 0.00 0.00 96 1021.8
20260902112515 61 37 1.0 4.0 0.00 0.00 0.00 96 1021.6
20260902112016 61 50 1.0 4.0 0.00 0.00 0.00 96 1021.7
20260902111515 61 48 2.0 4.0 0.00 0.00 0.00 96 1021.7
20260902111012 61 42 2.0 4.0 0.00 0.00 0.00 96 1021.6
20260902110516 61 28 0.0 2.0 0.00 0.00 0.00 96 1021.6
20260902110011 61 28 0.0 3.0 0.00 0.00 0.00 96 1021.6
20260902105510 60 27 0.0 2.0 0.00 0.00 0.00 96 1021.4
20260902105015 60 27 0.0 1.0 0.00 0.00 0.00 96 1021.4
20260902104513 60 27 0.0 2.0 0.00 0.00 0.00 96 1021.4
20260902104009 60 27 0.0 2.0 0.00 0.00 0.00 96 1021.6
20260902103507 60 27 0.0 2.0 0.00 0.00 0.00 96 1021.6
20260902103006 60 27 0.0 2.0 0.00 0.00 0.00 96 1021.6
20260902102506 60 28 0.0 2.0 0.00 0.00 0.00 96 1021.6
20260902102006 60 5 0.0 2.0 0.00 0.00 0.00 96 1021.5
20260902101505 60 5 0.0 1.0 0.00 0.00 0.00 96 1021.5
20260902101004 60 5 0.0 2.0 0.00 0.00 0.00 96 1021.6
20260902100504 60 5 0.0 3.0 0.00 0.00 0.00 96 1021.6
20260902100004 60 44 0.0 3.0 0.00 0.00 0.00 96 1021.5
20260902095504 60 48 0.0 0.0 0.00 0.00 0.00 96 1021.5
20260902095003 60 48 0.0 0.0 0.00 0.00 0.00 96 1021.5
20260902094503 60 48 0.0 0.0 0.00 0.00 0.00 96 1021.5
20260902094003 60 48 0.0 0.0 0.00 0.00 0.00 96 1021.4
20260902093503 60 48 0.0 1.0 0.00 0.00 0.00 96 1021.5
20260902093003 60 48 0.0 2.0 0.00 0.00 0.00 96 1021.4
20260902092505 60 48 0.0 3.0 0.00 0.00 0.00 96 1021.4
20260902092002 60 48 1.0 3.0 0.00 0.00 0.00 96 1021.3
20260902091502 60 45 1.0 3.0 0.00 0.00 0.00 96 1021.3
20260902091105 60 65 0.0 3.0 0.00 0.00 0.00 95 1021.4
20260902090604 60 19 0.0 1.0 0.00 0.00 0.00 95 1021.3
20260902090100 60 18 0.0 3.0 0.00 0.00 0.00 95 1021.3
20260902085559 60 17 0.0 3.0 0.00 0.00 0.00 95 1021.4
20260902085059 60 15 0.0 3.0 0.00 0.00 0.00 95 1021.4
20260902084604 60 11 0.0 2.0 0.00 0.00 0.00 95 1021.3
20260902084101 60 11 0.0 2.0 0.00 0.00 0.00 95 1021.4
20260902083558 60 11 0.0 2.0 0.00 0.00 0.00 95 1021.4
20260902083058 60 11 0.0 2.0 0.00 0.00 0.00 95 1021.5
20260902082557 60 11 0.0 3.0 0.00 0.00 0.00 95 1021.5
20260902082057 60 11 0.0 3.0 0.00 0.00 0.00 95 1021.3
20260902081558 60 11 0.0 3.0 0.00 0.00 0.00 95 1021.3
20260902081056 60 11 0.0 3.0 0.00 0.00 0.00 95 1021.4
20260902080555 61 59 0.0 0.0 0.00 0.00 0.00 95 1021.3
20260902080055 61 59 0.0 0.0 0.00 0.00 0.00 95 1021.2
20260902075553 61 59 0.0 0.0 0.00 0.00 0.00 95 1021.1
20260902075057 61 61 0.0 1.0 0.00 0.00 0.00 95 1021.1
20260902074609 61 61 0.0 3.0 0.00 0.00 0.00 95 1021.1
20260902074052 61 63 0.0 3.0 0.00 0.00 0.00 95 1020.9
20260902073553 61 63 0.0 3.0 0.00 0.00 0.00 95 1020.9
20260902073052 61 63 1.0 3.0 0.00 0.00 0.00 95 1021.0
20260902072552 61 64 0.0 3.0 0.00 0.00 0.00 95 1020.8
20260902072052 61 64 0.0 3.0 0.00 0.00 0.00 95 1020.7
20260902071551 61 65 0.0 3.0 0.00 0.00 0.00 95 1020.9
20260902071051 61 64 0.0 0.0 0.00 0.00 0.00 95 1020.8
20260902070549 61 64 0.0 0.0 0.00 0.00 0.00 95 1020.7
20260902070050 61 64 0.0 1.0 0.00 0.00 0.00 95 1020.7
20260902065550 61 64 0.0 1.0 0.00 0.00 0.00 95 1020.7
20260902065050 61 65 0.0 1.0 0.00 0.00 0.00 95 1020.8
20260902064550 61 65 0.0 2.0 0.00 0.00 0.00 95 1020.7
20260902064050 61 65 0.0 2.0 0.00 0.00 0.00 95 1020.7
20260902063550 61 62 0.0 1.0 0.00 0.00 0.00 95 1020.7
20260902063109 61 62 0.0 2.0 0.00 0.00 0.00 95 1020.7
20260902062550 61 62 0.0 2.0 0.00 0.00 0.00 95 1020.8
20260902062048 61 62 0.0 3.0 0.00 0.00 0.00 95 1020.8
20260902061552 61 62 1.0 3.0 0.00 0.00 0.00 95 1020.9
20260902061048 61 64 1.0 2.0 0.00 0.00 0.00 95 1020.8
20260902060546 61 66 0.0 2.0 0.00 0.00 0.00 95 1020.8
20260902060104 61 66 0.0 3.0 0.00 0.00 0.00 95 1020.6
20260902055545 61 66 0.0 3.0 0.00 0.00 0.00 94 1020.6
20260902055045 61 69 0.0 2.0 0.00 0.00 0.00 94 1020.6
20260902054557 61 69 1.0 2.0 0.00 0.00 0.00 94 1020.5
20260902054047 61 70 0.0 2.0 0.00 0.00 0.00 94 1020.5
20260902053544 61 71 0.0 2.0 0.00 0.00 0.00 94 1020.5
20260902053043 61 71 0.0 2.0 0.00 0.00 0.00 94 1020.3
20260902052547 61 70 0.0 0.0 0.00 0.00 0.00 94 1020.3
20260902052042 61 70 0.0 0.0 0.00 0.00 0.00 94 1020.2
20260902051549 61 70 0.0 2.0 0.00 0.00 0.00 94 1020.2
20260902051042 61 70 0.0 2.0 0.00 0.00 0.00 94 1020.1
20260902050541 62 70 0.0 2.0 0.00 0.00 0.00 94 1020.1
20260902050041 62 70 0.0 2.0 0.00 0.00 0.00 94 1019.9
20260902045540 62 69 0.0 1.0 0.00 0.00 0.00 94 1019.9
20260902045040 62 69 0.0 1.0 0.00 0.00 0.00 94 1019.8
20260902044540 62 69 0.0 1.0 0.00 0.00 0.00 94 1019.8
20260902044040 62 69 0.0 1.0 0.00 0.00 0.00 94 1019.8
20260902043539 62 69 0.0 1.0 0.00 0.00 0.00 94 1019.8
20260902043102 62 69 0.0 1.0 0.00 0.00 0.00 94 1019.9
20260902042539 62 69 0.0 1.0 0.00 0.00 0.00 94 1019.7
20260902042039 62 69 0.0 1.0 0.00 0.00 0.00 94 1019.7
20260902041555 62 69 0.0 1.0 0.00 0.00 0.00 94 1019.8
20260902041037 62 69 0.0 1.0 0.00 0.00 0.00 94 1019.8
20260902040536 62 69 0.0 1.0 0.00 0.00 0.00 93 1019.8
20260902040035 62 69 0.0 1.0 0.00 0.00 0.00 93 1019.8
20260902035537 62 69 0.0 3.0 0.00 0.00 0.00 93 1019.8
20260902035034 62 69 0.0 3.0 0.00 0.00 0.00 93 1019.7
20260902034534 62 68 0.0 1.0 0.00 0.00 0.00 93 1019.7
20260902034032 62 68 0.0 2.0 0.00 0.00 0.00 93 1019.6
20260902033532 62 68 0.0 3.0 0.00 0.00 0.00 93 1019.6
20260902033032 62 69 0.0 2.0 0.00 0.00 0.00 93 1019.3
20260902032531 62 64 0.0 3.0 0.00 0.00 0.00 93 1019.3
20260902032032 63 64 1.0 3.0 0.00 0.00 0.00 93 1019.3
20260902031532 63 67 1.0 3.0 0.00 0.00 0.00 93 1019.2
20260902031031 63 63 1.0 4.0 0.00 0.00 0.00 93 1019.0
20260902030530 63 74 1.0 6.0 0.00 0.00 0.00 93 1019.1
20260902030030 63 112 1.0 6.0 0.00 0.00 0.00 93 1019.0
20260902025530 63 65 1.0 6.0 0.00 0.00 0.00 93 1019.0
20260902025030 63 91 0.0 4.0 0.00 0.00 0.00 93 1019.1
20260902024529 63 105 0.0 3.0 0.00 0.00 0.00 93 1019.2
20260902024029 63 105 1.0 5.0 0.00 0.00 0.00 93 1019.2
20260902023529 63 57 1.0 5.0 0.00 0.00 0.00 93 1019.2
20260902023029 63 84 1.0 2.0 0.00 0.00 0.00 93 1019.1
20260902022529 63 90 0.0 2.0 0.00 0.00 0.00 93 1019.2
20260902022028 63 90 0.0 1.0 0.00 0.00 0.00 93 1019.3
20260902021528 63 90 0.0 1.0 0.00 0.00 0.00 93 1019.1
20260902021028 63 90 0.0 2.0 0.00 0.00 0.00 93 1019.2
20260902020528 63 90 0.0 2.0 0.00 0.00 0.00 92 1019.2
20260902020032 63 90 0.0 0.0 0.00 0.00 0.00 92 1019.2
20260902015527 63 90 0.0 2.0 0.00 0.00 0.00 92 1019.3
20260902015028 63 90 0.0 2.0 0.00 0.00 0.00 92 1019.2
20260902014533 63 90 0.0 1.0 0.00 0.00 0.00 92 1019.3
20260902014027 63 90 0.0 0.0 0.00 0.00 0.00 92 1019.4
20260902013526 63 90 0.0 0.0 0.00 0.00 0.00 92 1019.2
20260902013026 63 90 0.0 1.0 0.00 0.00 0.00 92 1019.3
20260902012528 63 90 0.0 2.0 0.00 0.00 0.00 92 1019.2
20260902012029 63 90 0.0 6.0 0.00 0.00 0.00 92 1019.1
20260902011526 63 90 0.0 6.0 0.00 0.00 0.00 92 1019.1
20260902011029 63 80 0.0 3.0 0.00 0.00 0.00 92 1019.2
20260902010524 63 80 1.0 4.0 0.00 0.00 0.00 92 1019.0
20260902010030 63 75 1.0 4.0 0.00 0.00 0.00 91 1018.9
20260902005525 63 87 0.0 3.0 0.00 0.00 0.00 91 1019.0
20260902005025 63 88 1.0 3.0 0.00 0.00 0.00 91 1019.0
20260902004530 63 74 1.0 4.0 0.00 0.00 0.00 91 1019.0
20260902004024 63 68 2.0 4.0 0.00 0.00 0.00 91 1018.9
20260902003524 63 101 0.0 2.0 0.00 0.00 0.00 90 1018.9
20260902003101 63 101 0.0 2.0 0.00 0.00 0.00 90 1018.9
20260902002521 63 101 0.0 2.0 0.00 0.00 0.00 90 1018.8
20260902002020 63 102 0.0 2.0 0.00 0.00 0.00 90 1018.7
20260902001521 63 102 0.0 0.0 0.00 0.00 0.00 90 1018.6
20260902001019 63 102 0.0 0.0 0.00 0.00 0.00 90 1018.7
20260902000518 64 103 0.0 1.0 0.00 0.00 0.00 90 1018.6
20260902000030 64 103 0.0 2.0 0.00 0.00 0.00 90 1018.6
20260901235517 64 103 0.0 2.0 0.00 0.00 0.00 90 1018.5
20260901235017 64 103 0.0 2.0 0.00 0.00 0.00 89 1018.6
20260901234517 64 103 0.0 4.0 0.00 0.00 0.00 89 1018.6
20260901234020 64 103 1.0 4.0 0.00 0.00 0.00 89 1018.4
20260901233517 64 82 0.0 2.0 0.00 0.00 0.00 89 1018.4
20260901233016 64 82 1.0 2.0 0.00 0.00 0.00 89 1018.4
20260901232518 64 79 0.0 3.0 0.00 0.00 0.00 89 1018.4
20260901232015 64 79 0.0 3.0 0.00 0.00 0.00 89 1018.5
20260901231514 64 74 1.0 3.0 0.00 0.00 0.00 89 1018.5
20260901231013 64 79 0.0 3.0 0.00 0.00 0.00 88 1018.4
20260901230513 64 76 0.0 2.0 0.00 0.00 0.00 88 1018.4
20260901230016 64 76 0.0 3.0 0.00 0.00 0.00 88 1018.4
20260901225513 64 76 1.0 4.0 0.00 0.00 0.00 88 1018.4
20260901225013 64 75 0.0 4.0 0.00 0.00 0.00 88 1018.3
20260901224513 65 82 1.0 4.0 0.00 0.00 0.00 88 1018.3
20260901224012 65 133 1.0 7.0 0.00 0.00 0.00 88 1018.4
20260901223513 65 82 2.0 4.0 0.00 0.00 0.00 88 1018.4
20260901223013 65 72 0.0 4.0 0.00 0.00 0.00 87 1018.4
20260901222512 65 83 1.0 4.0 0.00 0.00 0.00 87 1018.5
20260901222012 65 59 0.0 3.0 0.00 0.00 0.00 87 1018.3
20260901221512 65 93 1.0 5.0 0.00 0.00 0.00 87 1018.3
20260901221012 65 98 0.0 5.0 0.00 0.00 0.00 87 1018.3
20260901220510 65 61 2.0 5.0 0.00 0.00 0.00 87 1018.4
20260901220018 65 82 1.0 7.0 0.00 0.00 0.00 87 1018.3
20260901215511 65 120 2.0 6.0 0.00 0.00 0.00 87 1018.2
20260901215014 65 85 2.0 6.0 0.00 0.00 0.00 86 1018.1
20260901214509 66 101 0.0 6.0 0.00 0.00 0.00 86 1018.1
20260901214009 66 78 2.0 6.0 0.00 0.00 0.00 86 1018.0
20260901213509 66 113 1.0 6.0 0.00 0.00 0.00 86 1018.0
20260901213009 66 80 2.0 5.0 0.00 0.00 0.00 86 1017.9
20260901212510 66 64 1.0 5.0 0.00 0.00 0.00 85 1017.9
20260901212009 66 119 1.0 4.0 0.00 0.00 0.00 85 1017.8
20260901211509 66 103 2.0 7.0 0.00 0.00 0.00 86 1017.9
20260901211008 66 107 1.0 7.0 0.00 0.00 0.00 86 1018.1
20260901210510 66 87 2.0 7.0 0.00 0.00 0.00 85 1018.1
20260901210008 66 185 0.0 8.0 0.00 0.00 0.00 85 1018.1
20260901205507 66 90 1.0 8.0 0.00 0.00 0.00 85 1017.8
20260901205007 67 109 1.0 7.0 0.00 0.00 0.00 85 1017.7
20260901204506 67 98 2.0 7.0 0.00 0.00 0.00 84 1017.6
20260901204006 67 98 1.0 8.0 0.00 0.00 0.00 84 1017.5
20260901203507 67 111 3.0 8.0 0.00 0.00 0.00 84 1017.5
20260901203007 67 271 1.0 7.0 0.00 0.00 0.00 83 1017.5
20260901202506 67 167 2.0 7.0 0.00 0.00 0.00 84 1017.4
20260901202009 67 245 0.0 9.0 0.00 0.00 0.00 84 1017.4
20260901201506 67 243 0.0 9.0 0.00 0.00 0.00 83 1017.4
20260901201005 67 45 1.0 9.0 0.00 0.00 0.00 83 1017.5
20260901200506 67 66 2.0 6.0 0.00 0.00 0.00 82 1017.5
20260901200004 68 160 2.0 6.0 0.00 0.00 0.00 82 1017.5
20260901195504 68 253 1.0 6.0 0.00 0.00 0.00 82 1017.5
20260901195006 68 152 1.0 8.0 0.00 0.00 0.00 82 1017.5
20260901194503 68 78 3.0 8.0 0.00 0.00 0.00 82 1017.6
20260901194004 68 76 2.0 6.0 0.00 0.00 0.00 82 1017.5
20260901193504 68 94 2.0 9.0 0.00 0.00 0.00 82 1017.5
20260901193005 68 17 2.0 10.0 0.00 0.00 0.00 82 1017.5
20260901192503 68 72 4.0 11.0 0.00 0.00 0.00 82 1017.7
20260901192003 69 103 5.0 11.0 0.00 0.00 0.00 81 1017.8
20260901191503 69 234 3.0 12.0 0.00 0.00 0.00 81 1017.8
20260901191002 69 250 5.0 12.0 0.00 0.00 0.00 81 1017.7
20260901190502 69 137 3.0 12.0 0.00 0.00 0.00 81 1017.8
20260901190002 69 208 5.0 12.0 0.00 0.00 0.00 81 1017.8
20260901185502 69 124 5.0 10.0 0.00 0.00 0.00 80 1017.8
20260901185003 69 88 2.0 10.0 0.00 0.00 0.00 79 1017.8
20260901184503 69 84 5.0 10.0 0.00 0.00 0.00 79 1017.7
20260901184001 69 123 3.0 11.0 0.00 0.00 0.00 79 1017.8
20260901183602 69 65 3.0 11.0 0.00 0.00 0.00 79 1017.6
20260901183107 69 91 2.0 8.0 0.00 0.00 0.00 79 1017.7